Location: Unspecified
(0.0000°N, 0.0000°E)
Time: 23:18:36
(UTC+02:00)

Atlas Centaur 2 - Visible Passes

Search period start: 25 June 2016 00:00
Search period end: 05 July 2016 00:00
Orbit: 459 x 1315 km, 30.4° (Epoch: 24 June)

Date Brightness Start Highest point End Pass type
(mag) Time Alt. Az. Time Alt. Az. Time Alt. Az.
25 Jun 3.5 05:10:19 57° E 05:10:19 57° E 05:17:06 10° ENE visible
25 Jun 3.8 06:52:58 18° W 06:58:46 41° NNW 07:06:07 10° NE visible
26 Jun 3.4 05:07:32 60° ENE 05:07:32 60° ENE 05:14:11 10° ENE visible
26 Jun 4.1 06:50:12 17° W 06:55:46 33° NNW 07:02:49 10° NNE visible
27 Jun 3.5 05:04:44 56° NE 05:04:44 56° NE 05:11:09 10° NE visible
27 Jun 4.3 06:47:22 15° WNW 06:52:48 27° NNW 06:59:25 10° NNE visible
28 Jun 3.7 05:01:52 48° NNE 05:01:52 48° NNE 05:08:01 10° NE visible
28 Jun 4.6 06:44:31 12° WNW 06:49:54 22° NNW 06:55:54 10° NNE visible
29 Jun 4.0 04:58:57 40° NNE 04:58:57 40° NNE 05:04:46 10° NE visible
29 Jun 4.8 06:41:50 10° WNW 06:47:04 17° NNW 06:52:14 10° NNE visible
30 Jun 4.2 04:56:01 34° N 04:56:01 34° N 05:01:26 10° NE visible
30 Jun 5.0 06:40:15 10° NW 06:44:19 14° NNW 06:48:21 10° N visible
01 Jul 4.5 04:53:01 28° N 04:53:01 28° N 04:57:59 10° NNE visible
01 Jul 5.1 06:39:19 10° NW 06:41:38 11° NNW 06:43:57 10° N visible
02 Jul 4.7 04:50:00 23° N 04:50:00 23° N 04:54:26 10° NNE visible
03 Jul 4.9 04:46:57 19° N 04:46:57 19° N 04:50:45 10° NNE visible
04 Jul 5.1 04:43:53 15° N 04:43:53 15° N 04:46:53 10° NNE visible
